Weather History for Bastia, France

Change the Weather History Date:

Friday, November 23, 2012

  Actual Average Record
Temperature  
Mean Temperature 58 °F -  
Max Temperature 67 °F 57 °F 67 °F (2012)
Min Temperature 50 °F 43 °F 41 °F (2001)
Degree Days  
Heating Degree Days 6    
Growing Degree Days 8 (Base 50)    
Moisture  
Dew Point 52 °F    
Average Humidity 85    
Maximum Humidity 100    
Minimum Humidity 55    
Precipitation  
Precipitation 0.02 in - - ()
Sea Level Pressure  
Sea Level Pressure 30.18 in    
Wind  
Wind Speed 3 mph ()    
Max Wind Speed 9 mph    
Max Gust Speed -    
Visibility 6.3 miles    
Events Fog , Rain    
Averages and records for this station are not official NWS values.
T = Trace of Precipitation, MM = Missing Value Source: Averaged Metar Reports

Daily Weather History Graph

Daily Weather History Graph

Search for Another Location

Airport:

Trip Planner

Search our weather history database for the weather conditions in past years. The results will help you decide how hot, cold, wet, or windy it might be!

Date:

Astronomy

Nov. 23, 2012 Rise Set
Actual Time 7:23 AM CET 4:53 PM CET
Civil Twilight 6:52 AM CET 5:24 PM CET
Nautical Twilight 6:17 AM CET 5:58 PM CET
Astronomical Twilight 5:44 AM CET 6:32 PM CET
Moon 2:04 PM CET (11/23) 2:20 AM CET (11/23)
Length of Visible Light 10h 31m
Length of Day
9h 30m
Waxing Gibbous, 77% of the Moon is Illuminated
Nov 23
Waxing Gibbous
Nov 28
Full
Dec 6
Last Quarter
Dec 13
New
Dec 20
First Quarter

Hourly Weather History & Observations

Time (CET) Temp. Dew Point Humidity Pressure Visibility Wind Dir Wind Speed Gust Speed Precip Events Conditions
12:00 AM 53.6 °F 51.8 °F 94% 30.15 in 6.2 mi SSW 3.5 mph - N/A Rain Light Rain
12:30 AM 53.6 °F 51.8 °F 94% 30.15 in 6.2 mi South 2.3 mph - N/A Rain Light Rain
1:00 AM 54 °F 51 °F 87% 30.17 in 12 mi SSE 3.5 mph - -   Clear
1:00 AM 53.6 °F 51.8 °F 94% 30.15 in 6.2 mi SSE 3.5 mph - N/A   Mostly Cloudy
1:30 AM 53.6 °F 51.8 °F 94% 30.15 in 6.2 mi South 3.5 mph - N/A   Overcast
2:00 AM 53.6 °F 51.8 °F 94% 30.15 in 6.2 mi South 3.5 mph - N/A   Overcast
2:30 AM 53.6 °F 51.8 °F 94% 30.15 in 6.2 mi SSW 5.8 mph - N/A   Mostly Cloudy
3:00 AM 53.6 °F 50.0 °F 88% 30.15 in 6.2 mi SSW 5.8 mph - N/A   Mostly Cloudy
3:30 AM 53.6 °F 50.0 °F 88% 30.15 in 6.2 mi SSW 3.5 mph - N/A   Mostly Cloudy
4:15 AM 53.6 °F 50.0 °F 88% 30.15 in 6.2 mi SSW 5.8 mph - N/A   Mostly Cloudy
5:00 AM 55.4 °F 50.0 °F 82% 30.12 in 6.2 mi SSW 9.2 mph - N/A   Mostly Cloudy
5:34 AM 55.4 °F 50.0 °F 82% 30.15 in 6.2 mi South 4.6 mph - N/A   Mostly Cloudy
6:00 AM 55.4 °F 50.0 °F 82% 30.15 in 6.2 mi SW 4.6 mph - N/A   Mostly Cloudy
6:30 AM 53.6 °F 50.0 °F 88% 30.15 in 6.2 mi West 3.5 mph - N/A   Scattered Clouds
7:00 AM 52 °F 50 °F 89% 30.18 in 6 mi SW 2.3 mph - -   Scattered Clouds
7:00 AM 51.8 °F 50.0 °F 94% 30.15 in 6.2 mi SSW 2.3 mph - N/A   Scattered Clouds
7:30 AM 51.8 °F 48.2 °F 88% 30.18 in 6.2 mi SW 2.3 mph - N/A Fog Shallow Fog
8:00 AM 51.8 °F 48.2 °F 88% 30.18 in 6.2 mi South 3.5 mph - N/A Fog Shallow Fog
8:30 AM 53.6 °F 50.0 °F 88% 30.18 in 6.2 mi SSW 4.6 mph - N/A Fog Shallow Fog
9:00 AM 55.4 °F 51.8 °F 88% 30.18 in 6.2 mi SW 3.5 mph - N/A Fog Shallow Fog
9:30 AM 59.0 °F 51.8 °F 77% 30.18 in 6.2 mi Variable 2.3 mph - N/A Fog Shallow Fog
10:00 AM 60.8 °F 51.8 °F 72% 30.18 in 6.2 mi Variable 2.3 mph - N/A   Mostly Cloudy
10:30 AM 64.4 °F 53.6 °F 68% 30.18 in 6.2 mi Calm Calm - N/A   Mostly Cloudy
11:00 AM 66.2 °F 53.6 °F 64% 30.18 in 6.2 mi Variable 2.3 mph - N/A   Mostly Cloudy
11:30 AM 66.2 °F 51.8 °F 60% 30.18 in 6.2 mi Calm Calm - N/A   Mostly Cloudy
12:00 PM 66.2 °F 51.8 °F 60% 30.18 in 6.2 mi Variable 2.3 mph - N/A   Scattered Clouds
1:00 PM 65 °F 53 °F 55% 30.19 in 9 mi ENE 4.6 mph - -   Scattered Clouds
1:00 PM 66.2 °F 53.6 °F 64% 30.18 in 6.2 mi ENE 4.6 mph - N/A   Scattered Clouds
1:30 PM 66.2 °F 53.6 °F 64% 30.18 in 6.2 mi East 4.6 mph - N/A   Scattered Clouds
2:00 PM 64.4 °F 55.4 °F 73% 30.18 in 6.2 mi ENE 3.5 mph - N/A   Scattered Clouds
2:30 PM 66.2 °F 57.2 °F 73% 30.18 in 6.2 mi East 3.5 mph - N/A   Scattered Clouds
3:00 PM 64.4 °F 55.4 °F 73% 30.18 in 6.2 mi East 4.6 mph - N/A   Scattered Clouds
3:30 PM 64.4 °F 57.2 °F 77% 30.18 in 6.2 mi ESE 3.5 mph - N/A   Scattered Clouds
4:00 PM 62.6 °F 57.2 °F 82% 30.18 in 6.2 mi North - - N/A   Scattered Clouds
4:30 PM 60.8 °F 55.4 °F 82% 30.18 in 6.2 mi Calm Calm - N/A   Scattered Clouds
5:00 PM 59.0 °F 55.4 °F 88% 30.18 in 5.0 mi South 1.2 mph - N/A   Scattered Clouds
5:30 PM 57.2 °F 55.4 °F 94% 30.18 in 5.0 mi South 2.3 mph - N/A   Scattered Clouds
6:00 PM 55.4 °F 51.8 °F 88% 30.18 in 6.2 mi SSW 2.3 mph - N/A   Scattered Clouds
6:30 PM 53.6 °F 53.6 °F 100% 30.21 in 6.2 mi SW 3.5 mph - N/A   Partly Cloudy
7:00 PM 54 °F 52 °F 91% 30.22 in 7 mi SW 3.5 mph - -   Scattered Clouds
7:00 PM 53.6 °F 51.8 °F 94% 30.21 in 6.2 mi SW 4.6 mph - N/A   Partly Cloudy
7:30 PM 53.6 °F 51.8 °F 94% 30.21 in 6.2 mi South 2.3 mph - N/A   Partly Cloudy
8:00 PM 53.6 °F 51.8 °F 94% 30.21 in 6.2 mi SW 3.5 mph - N/A   Scattered Clouds
8:30 PM 53.6 °F 51.8 °F 94% 30.21 in 6.2 mi SW 2.3 mph - N/A   Scattered Clouds
9:00 PM 51.8 °F 51.8 °F 100% 30.21 in 6.2 mi SSW 2.3 mph - N/A   Scattered Clouds
9:30 PM 51.8 °F 50.0 °F 94% 30.24 in 6.2 mi South 4.6 mph - N/A   Scattered Clouds
10:00 PM 51.8 °F 50.0 °F 94% 30.24 in 6.2 mi SSW 4.6 mph - N/A   Scattered Clouds
10:40 PM 51.8 °F 50.0 °F 94% 30.24 in 6.2 mi South 4.6 mph - N/A   Scattered Clouds
11:00 PM 51.8 °F 50.0 °F 94% 30.24 in 6.2 mi SSW 4.6 mph - N/A   Scattered Clouds
11:30 PM 51.8 °F 50.0 °F 94% 30.24 in 6.2 mi SSW 4.6 mph - N/A   Scattered Clouds